EW0802 Weather Reports


Display with metric or nautical units.
time (UTC)temp
F
wind
direction
speed
MPH
gust
MPH
rain 1hr
in
rain 24hr
in
rain mn
in
humidity
%
barometer
mb
20220707143100 87 231 0.0 3.0 0.00 0.00 0.00 62 1013.6
20220707141548 86 157 0.0 4.0 0.00 0.00 0.00 64 1013.6
20220707140051 84 100 1.0 7.0 0.00 0.00 0.00 65 1013.3
20220707134540 84 153 0.0 6.0 0.00 0.00 0.00 68 1013.3
20220707133035 83 130 0.0 9.0 0.00 0.00 0.00 68 1013.3
20220707131531 82 142 0.0 4.0 0.00 0.00 0.00 69 1013.0
20220707130028 82 146 0.0 2.0 0.00 0.00 0.00 70 1012.8
20220707124522 81 79 0.0 2.0 0.00 0.00 0.00 70 1012.7
20220707123017 81 133 0.0 4.0 0.00 0.00 0.00 70 1012.6
20220707121518 80 131 0.0 4.0 0.00 0.00 0.00 71 1012.6
20220707120009 80 125 0.0 4.0 0.00 0.00 0.00 70 1012.4
20220707114507 80 138 0.0 4.0 0.00 0.00 0.00 70 1012.3
20220707113006 81 148 0.0 3.0 0.00 0.00 0.00 69 1012.2
20220707111501 81 127 0.0 5.0 0.00 0.00 0.00 69 1012.1
20220707110059 82 190 0.0 6.0 0.00 0.00 0.00 68 1011.8
20220707104557 82 115 0.0 4.0 0.00 0.00 0.00 67 1011.8
20220707103059 82 129 0.0 6.0 0.00 0.00 0.00 67 1011.5
20220707101553 82 91 1.0 7.0 0.00 0.00 0.00 67 1011.3
20220707100055 82 134 0.0 4.0 0.00 0.00 0.00 69 1011.3
20220707094558 82 157 0.0 5.0 0.00 0.00 0.00 70 1011.2
20220707093051 82 136 1.0 7.0 0.00 0.00 0.00 70 1011.1
20220707091550 83 148 0.0 10.0 0.00 0.00 0.00 69 1011.1
20220707090049 83 123 0.0 7.0 0.00 0.00 0.00 69 1011.0
20220707084547 83 100 0.0 8.0 0.00 0.00 0.00 68 1011.0
20220707083045 83 124 2.0 10.0 0.00 0.00 0.00 68 1010.7
20220707081543 84 140 3.0 9.0 0.00 0.00 0.00 67 1010.4
20220707080104 84 96 1.0 7.0 0.00 0.00 0.00 67 1010.7
20220707074540 84 107 1.0 9.0 0.00 0.00 0.00 66 1010.8
20220707073038 85 117 1.0 10.0 0.00 0.00 0.00 65 1010.7
20220707071537 85 122 1.0 8.0 0.00 0.00 0.00 64 1010.8
20220707070038 86 116 1.0 10.0 0.00 0.00 0.00 63 1010.9
20220707064532 86 105 1.0 9.0 0.00 0.00 0.00 61 1011.1
20220707063030 86 169 0.0 8.0 0.00 0.00 0.00 60 1011.1
20220707061533 87 107 0.0 10.0 0.00 0.00 0.00 58 1011.2
20220707060027 87 163 0.0 5.0 0.00 0.00 0.00 56 1011.3
20220707054523 88 84 1.0 8.0 0.00 0.00 0.00 54 1011.3
20220707053021 88 161 1.0 5.0 0.00 0.00 0.00 51 1011.2
20220707051519 89 132 0.0 10.0 0.00 0.00 0.00 50 1011.2
20220707050016 89 132 0.0 3.0 0.00 0.00 0.00 49 1011.1
20220707044516 89 102 0.0 6.0 0.00 0.00 0.00 49 1010.9
20220707043014 90 117 0.0 3.0 0.00 0.00 0.00 48 1010.9
20220707041516 90 126 0.0 4.0 0.00 0.00 0.00 47 1010.9
20220707040013 91 139 0.0 4.0 0.00 0.00 0.00 46 1010.7
20220707034517 91 113 0.0 3.0 0.00 0.00 0.00 45 1010.6
20220707033012 91 114 0.0 3.0 0.00 0.00 0.00 44 1010.4
20220707031517 91 129 0.0 0.0 0.00 0.00 0.00 42 1010.4
20220707030016 91 130 0.0 1.0 0.00 0.00 0.00 41 1010.3
20220707024520 92 128 0.0 1.0 0.00 0.00 0.00 40 1010.0
20220707023021 93 128 0.0 1.0 0.00 0.00 0.00 38 1009.8
20220707021510 94 132 0.0 2.0 0.00 0.00 0.00 37 1009.7
20220707020010 95 147 0.0 3.0 0.00 0.00 0.00 36 1009.5
20220707014518 96 143 0.0 3.0 0.00 0.00 0.00 35 1009.5
20220707013018 96 123 0.0 7.0 0.00 0.00 0.00 34 1009.3
20220707011508 97 137 0.0 8.0 0.00 0.00 0.00 34 1009.1
20220707010023 97 157 1.0 9.0 0.00 0.00 0.00 32 1009.1
20220707004508 98 92 0.0 8.0 0.00 0.00 0.00 32 1009.1
20220707003013 98 99 2.0 8.0 0.00 0.00 0.00 32 1009.0
20220707001506 99 161 2.0 6.0 0.00 0.00 0.00 33 1008.9
20220707000006 99 120 2.0 10.0 0.00 0.00 0.00 33 1008.8
20220706234506 99 79 2.0 11.0 0.00 0.00 0.00 32 1008.8
20220706233011 100 82 2.0 8.0 0.00 0.00 0.00 32 1008.8
20220706231506 101 104 2.0 9.0 0.00 0.00 0.00 31 1008.7
20220706230010 102 289 0.0 7.0 0.00 0.00 0.00 31 1009.0
20220706224501 101 185 1.0 10.0 0.00 0.00 0.00 29 1009.1
20220706223100 102 139 0.0 8.0 0.00 0.00 0.00 31 1009.2
20220706221559 102 82 2.0 6.0 0.00 0.00 0.00 29 1009.4
20220706220057 103 224 1.0 8.0 0.00 0.00 0.00 27 1009.6
20220706214558 103 153 1.0 7.0 0.00 0.00 0.00 28 1009.6
20220706213059 103 62 0.0 9.0 0.00 0.00 0.00 28 1009.7
20220706211556 103 96 0.0 7.0 0.00 0.00 0.00 30 1009.9
20220706210052 101 123 0.0 10.0 0.00 0.00 0.00 29 1010.0
20220706204550 102 128 0.0 5.0 0.00 0.00 0.00 29 1010.1
20220706203058 101 55 1.0 8.0 0.00 0.00 0.00 30 1010.3
20220706201547 102 118 1.0 8.0 0.00 0.00 0.00 30 1010.4
20220706200047 101 122 0.0 4.0 0.00 0.00 0.00 32 1010.4
20220706194545 101 197 1.0 5.0 0.00 0.00 0.00 34 1010.5
20220706193043 101 57 0.0 6.0 0.00 0.00 0.00 34 1010.7
20220706191542 100 133 1.0 6.0 0.00 0.00 0.00 35 1010.9
20220706190036 100 232 1.0 8.0 0.00 0.00 0.00 35 1011.2
20220706184538 99 150 1.0 6.0 0.00 0.00 0.00 37 1011.3
20220706183039 98 115 0.0 8.0 0.00 0.00 0.00 40 1011.7
20220706181537 98 119 0.0 4.0 0.00 0.00 0.00 40 1011.8
20220706180023 98 238 2.0 9.0 0.00 0.00 0.00 40 1012.1
20220706174519 96 257 1.0 9.0 0.00 0.00 0.00 41 1012.3
20220706173017 97 155 1.0 8.0 0.00 0.00 0.00 42 1012.5
20220706171514 96 350 0.0 7.0 0.00 0.00 0.00 43 1012.6
20220706170029 95 256 1.0 7.0 0.00 0.00 0.00 44 1012.6
20220706164506 94 239 1.0 9.0 0.00 0.00 0.00 45 1012.8
20220706163001 93 217 0.0 5.0 0.00 0.00 0.00 46 1013.0
20220706161559 93 203 0.0 4.0 0.00 0.00 0.00 47 1013.1
20220706160056 92 252 1.0 6.0 0.00 0.00 0.00 48 1013.3
20220706154552 91 146 0.0 7.0 0.00 0.00 0.00 50 1013.3
20220706153048 90 140 2.0 8.0 0.00 0.00 0.00 52 1013.3
20220706151550 89 198 0.0 5.0 0.00 0.00 0.00 54 1013.4
20220706150044 88 107 2.0 8.0 0.00 0.00 0.00 56 1013.4
20220706144536 87 103 0.0 7.0 0.00 0.00 0.00 60 1013.5